• In Hungary
  • List of Countries
  • For 7 days
  • Water Temperature
  • Satellite Maps
  • Weather Map
  • News
  • Weather Widgets
  • user-avatar
    Login

    Hourly Weather Yalchikaevo

    Today, 21 May, Monday

    Time Temperature Precipitation Wind Pressure Humidity
    00:00 +18°C° 0.2 mm 1 mps 742 mmHg 82%
    01:00 +16°C° 0.2 mm 1 mps 742 mmHg 85%
    02:00 +16°C° 0 mm 1 mps 742 mmHg 86%
    03:00 +15°C° 0 mm 0 mps 742 mmHg 87%
    04:00 +15°C° 0 mm 0 mps 742 mmHg 86%
    05:00 +18°C° 0.3 mm 1 mps 742 mmHg 83%
    06:00 +19°C° 0.3 mm 1 mps 743 mmHg 80%
    07:00 +19°C° 0.3 mm 2 mps 743 mmHg 78%
    08:00 +20°C° 0.2 mm 2 mps 743 mmHg 74%
    09:00 +21°C° 0.2 mm 2 mps 743 mmHg 70%
    10:00 +24°C° 0 mm 3 mps 744 mmHg 64%
    11:00 +22°C° 1.2 mm 3 mps 744 mmHg 64%
    12:00 +22°C° 1.2 mm 4 mps 744 mmHg 65%
    13:00 +22°C° 1.2 mm 4 mps 745 mmHg 66%
    14:00 +22°C° 0.2 mm 4 mps 745 mmHg 65%
    15:00 +21°C° 0.2 mm 4 mps 745 mmHg 65%
    16:00 +21°C° 0.2 mm 4 mps 745 mmHg 65%
    17:00 +20°C° 0 mm 4 mps 745 mmHg 67%
    18:00 +19°C° 0 mm 5 mps 745 mmHg 69%
    19:00 +17°C° 0 mm 5 mps 745 mmHg 71%
    20:00 +15°C° 0 mm 5 mps 746 mmHg 72%
    21:00 +14°C° 0 mm 6 mps 746 mmHg 72%
    22:00 +13°C° 0 mm 6 mps 746 mmHg 72%
    23:00 +11°C° 0 mm 6 mps 747 mmHg 73%

    Tomorrow, 22 May, Tuesday

    Time Temperature Precipitation Wind Pressure Humidity
    00:00 +10°C° 0 mm 6 mps 747 mmHg 74%
    01:00 +9°C° 0 mm 5 mps 747 mmHg 74%
    02:00 +8°C° 0 mm 5 mps 748 mmHg 76%
    03:00 +8°C° 0 mm 5 mps 748 mmHg 78%
    04:00 +7°C° 0 mm 4 mps 749 mmHg 80%
    05:00 +8°C° 0 mm 5 mps 749 mmHg 75%
    06:00 +9°C° 0 mm 5 mps 749 mmHg 69%
    07:00 +10°C° 0 mm 6 mps 749 mmHg 64%
    08:00 +13°C° 0 mm 6 mps 750 mmHg 57%
    09:00 +14°C° 0 mm 6 mps 750 mmHg 51%
    10:00 +16°C° 0 mm 6 mps 750 mmHg 44%
    11:00 +17°C° 0 mm 6 mps 750 mmHg 43%
    12:00 +19°C° 0 mm 6 mps 750 mmHg 42%
    13:00 +20°C° 0 mm 6 mps 750 mmHg 41%
    14:00 +20°C° 0 mm 6 mps 750 mmHg 42%
    15:00 +20°C° 0 mm 6 mps 750 mmHg 43%
    16:00 +20°C° 0 mm 5 mps 750 mmHg 44%
    17:00 +20°C° 0 mm 5 mps 750 mmHg 49%
    18:00 +19°C° 0 mm 4 mps 750 mmHg 55%
    19:00 +18°C° 0 mm 3 mps 750 mmHg 60%
    20:00 +17°C° 0 mm 3 mps 750 mmHg 65%
    21:00 +16°C° 0 mm 2 mps 750 mmHg 70%
    22:00 +14°C° 0 mm 2 mps 750 mmHg 74%
    23:00 +14°C° 0 mm 2 mps 750 mmHg 76%

    Day after tomorrow, 23 May, Wednesday

    Time Temperature Precipitation Wind Pressure Humidity
    00:00 +13°C° 0 mm 2 mps 750 mmHg 79%
    01:00 +13°C° 0 mm 2 mps 751 mmHg 81%
    02:00 +13°C° 0 mm 2 mps 751 mmHg 82%
    03:00 +13°C° 0 mm 1 mps 751 mmHg 83%
    04:00 +12°C° 0 mm 1 mps 751 mmHg 84%
    05:00 +14°C° 0 mm 1 mps 751 mmHg 78%
    06:00 +15°C° 0 mm 1 mps 751 mmHg 73%
    07:00 +18°C° 0 mm 1 mps 751 mmHg 68%
    08:00 +20°C° 0 mm 1 mps 751 mmHg 63%
    09:00 +21°C° 0 mm 1 mps 751 mmHg 57%
    10:00 +23°C° 0 mm 1 mps 751 mmHg 52%
    11:00 +24°C° 0 mm 1 mps 751 mmHg 49%
    12:00 +25°C° 0 mm 1 mps 751 mmHg 45%
    13:00 +26°C° 0 mm 1 mps 751 mmHg 42%
    14:00 +26°C° 0 mm 1 mps 751 mmHg 41%
    15:00 +27°C° 0 mm 1 mps 750 mmHg 41%
    16:00 +27°C° 0 mm 2 mps 750 mmHg 40%
    17:00 +26°C° 0 mm 2 mps 750 mmHg 45%
    18:00 +25°C° 0 mm 2 mps 750 mmHg 50%
    19:00 +25°C° 0 mm 2 mps 749 mmHg 54%
    20:00 +23°C° 0 mm 2 mps 749 mmHg 57%
    21:00 +20°C° 0 mm 2 mps 749 mmHg 60%
    22:00 +19°C° 0 mm 2 mps 749 mmHg 63%
    23:00 +18°C° 0 mm 2 mps 748 mmHg 64%

    24 May, Thursday

    Time Temperature Precipitation Wind Pressure Humidity
    00:00 +18°C° 0 mm 2 mps 748 mmHg 66%
    01:00 +17°C° 0 mm 2 mps 748 mmHg 68%
    02:00 +17°C° 0 mm 2 mps 748 mmHg 69%
    03:00 +16°C° 0 mm 2 mps 747 mmHg 71%
    04:00 +16°C° 0 mm 2 mps 747 mmHg 72%
    05:00 +17°C° 0 mm 2 mps 747 mmHg 69%
    06:00 +18°C° 0 mm 2 mps 747 mmHg 67%
    07:00 +20°C° 0 mm 3 mps 747 mmHg 64%
    08:00 +21°C° 0 mm 3 mps 746 mmHg 59%
    09:00 +23°C° 0 mm 4 mps 746 mmHg 53%
    10:00 +26°C° 0 mm 4 mps 746 mmHg 47%
    11:00 +26°C° 0 mm 5 mps 745 mmHg 44%
    12:00 +27°C° 0 mm 5 mps 745 mmHg 41%
    13:00 +28°C° 0 mm 6 mps 744 mmHg 38%
    14:00 +28°C° 0 mm 6 mps 744 mmHg 39%
    15:00 +28°C° 0 mm 6 mps 743 mmHg 40%
    16:00 +28°C° 0 mm 5 mps 743 mmHg 41%
    17:00 +27°C° 0 mm 5 mps 742 mmHg 46%
    18:00 +25°C° 0 mm 4 mps 742 mmHg 51%
    19:00 +24°C° 0 mm 3 mps 742 mmHg 56%
    20:00 +22°C° 0 mm 3 mps 741 mmHg 58%
    21:00 +21°C° 0 mm 3 mps 741 mmHg 61%
    22:00 +19°C° 0 mm 2 mps 740 mmHg 63%
    23:00 +19°C° 0 mm 3 mps 740 mmHg 64%

    25 May, Friday

    Time Temperature Precipitation Wind Pressure Humidity
    00:00 +18°C° 0 mm 3 mps 740 mmHg 65%
    01:00 +18°C° 0 mm 3 mps 739 mmHg 66%
    02:00 +18°C° 0 mm 3 mps 739 mmHg 66%
    03:00 +17°C° 0 mm 3 mps 739 mmHg 66%
    04:00 +17°C° 0 mm 3 mps 738 mmHg 66%
    05:00 +18°C° 0 mm 3 mps 738 mmHg 65%
    06:00 +19°C° 0 mm 3 mps 738 mmHg 64%
    07:00 +19°C° 0 mm 3 mps 737 mmHg 63%
    08:00 +21°C° 0 mm 4 mps 737 mmHg 58%
    09:00 +23°C° 0 mm 5 mps 736 mmHg 53%
    10:00 +24°C° 0 mm 6 mps 736 mmHg 48%
    11:00 +26°C° 0.1 mm 7 mps 735 mmHg 46%
    12:00 +26°C° 0.1 mm 8 mps 735 mmHg 43%
    13:00 +27°C° 0.1 mm 9 mps 734 mmHg 41%
    14:00 +24°C° 0.3 mm 8 mps 734 mmHg 50%
    15:00 +23°C° 0.3 mm 7 mps 733 mmHg 59%
    16:00 +21°C° 0.3 mm 6 mps 733 mmHg 68%
    17:00 +20°C° 0.2 mm 6 mps 733 mmHg 72%
    18:00 +19°C° 0.2 mm 5 mps 733 mmHg 76%
    19:00 +17°C° 0.2 mm 5 mps 733 mmHg 81%
    20:00 +15°C° 0.1 mm 5 mps 733 mmHg 83%
    21:00 +13°C° 0.1 mm 5 mps 734 mmHg 85%
    22:00 +11°C° 0.1 mm 6 mps 734 mmHg 87%
    23:00 +10°C° 0 mm 5 mps 734 mmHg 86%

    26 May, Saturday

    Time Temperature Precipitation Wind Pressure Humidity
    00:00 +8°C° 0 mm 5 mps 734 mmHg 86%
    01:00 +7°C° 0 mm 5 mps 734 mmHg 85%
    02:00 +6°C° 0 mm 5 mps 734 mmHg 84%
    03:00 +6°C° 0 mm 5 mps 734 mmHg 83%
    04:00 +5°C° 0 mm 5 mps 734 mmHg 82%
    05:00 +5°C° 0 mm 5 mps 735 mmHg 81%
    06:00 +5°C° 0 mm 5 mps 735 mmHg 79%
    07:00 +5°C° 0 mm 5 mps 735 mmHg 78%
    08:00 +6°C° 0 mm 5 mps 735 mmHg 77%
    09:00 +6°C° 0 mm 5 mps 735 mmHg 75%
    10:00 +7°C° 0 mm 5 mps 736 mmHg 73%
    11:00 +7°C° 0 mm 5 mps 736 mmHg 72%
    12:00 +8°C° 0 mm 6 mps 736 mmHg 70%
    13:00 +9°C° 0 mm 6 mps 736 mmHg 69%
    14:00 +9°C° 0 mm 6 mps 736 mmHg 70%
    15:00 +9°C° 0 mm 7 mps 737 mmHg 71%
    16:00 +10°C° 0 mm 7 mps 737 mmHg 72%
    17:00 +9°C° 0 mm 8 mps 737 mmHg 72%
    18:00 +7°C° 0 mm 8 mps 738 mmHg 72%
    19:00 +7°C° 0 mm 9 mps 738 mmHg 71%
    20:00 +7°C° 0.1 mm 9 mps 738 mmHg 72%
    21:00 +6°C° 0.1 mm 9 mps 738 mmHg 73%
    22:00 +6°C° 0.1 mm 9 mps 739 mmHg 73%
    23:00 +5°C° 0.1 mm 9 mps 739 mmHg 73%
    Show more